Wind_Speed
12 13 11 6 3 2 3 3 2 2 1 2 5 6 6 3 4 7 4 12 8 14 13 16 17 16 13 10 9 8 7 7 7 8 8 9 10 11 11 11 11 12 12 13 12 12 11 11 11
13 12 7 3 2 3 3 3 6 3 9 14 7 9 5 6 13 7 6 13 10 13 11 15 16 15 12 10 10 9 7 7 7 8 10 11 12 12 13 14 14 14 13 13 13 12 11 11 11
12 8 3 2 2 5 2 6 3 9 13 3 3 5 5 5 8 6 11 15 13 14 11 13 14 15 14 12 11 8 6 6 7 9 11 13 13 11 12 14 15 15 14 12 10 11 12 12 11
8 4 2 4 10 6 4 3 5 10 4 4 3 7 6 11 6 9 13 15 13 12 13 14 15 16 15 15 13 11 9 8 8 10 12 12 13 12 13 15 16 16 15 14 11 15 16 18 13
8 3 3 4 7 5 8 13 8 7 7 8 3 3 5 13 12 12 13 15 13 11 13 15 17 17 16 19 17 15 12 10 10 11 13 12 11 14 15 17 17 19 18 17 16 18 18 20 17
4 1 4 7 7 6 7 12 7 8 4 5 3 4 6 14 14 15 14 15 14 11 10 15 17 17 17 20 19 17 13 12 12 12 14 13 12 14 15 16 17 19 20 20 19 19 19 20 17
5 3 5 5 6 7 6 4 3 2 2 2 5 4 6 14 17 16 16 16 17 17 13 14 17 19 19 20 20 18 16 14 14 14 16 15 14 15 15 15 16 19 20 21 23 22 22 23 22
5 3 4 6 6 6 6 5 8 1 2 8 3 3 9 21 26 18 19 20 22 21 18 18 19 21 23 23 22 20 18 15 15 17 18 18 17 16 16 17 17 17 17 19 21 23 24 25 25
7 6 11 8 7 7 2 4 3 2 11 9 11 13 14 20 25 23 22 26 28 28 25 23 24 23 25 26 23 21 18 17 18 20 21 20 20 19 19 18 17 16 17 17 19 18 17 19 22
11 11 14 11 11 9 7 10 11 7 16 28 19 20 17 22 26 27 25 34 35 34 30 28 27 27 27 28 25 22 19 19 19 21 21 21 22 21 20 20 18 17 15 16 17 17 18 17 16
12 19 21 20 21 7 16 18 15 15 18 29 20 26 31 25 31 31 31 33 40 39 33 32 30 29 28 29 26 23 19 19 20 21 20 19 20 21 22 21 20 17 14 15 14 16 19 17 14
13 21 30 27 21 14 18 16 21 20 35 36 30 26 29 33 35 38 34 33 38 42 37 35 32 30 30 29 26 22 19 19 20 19 17 17 18 20 21 22 19 17 16 15 15 14 16 18 17
15 21 22 26 23 23 25 23 21 30 42 36 28 28 31 33 37 36 36 33 37 43 42 39 34 31 30 29 25 22 18 19 18 17 15 15 16 17 17 19 19 17 17 15 14 14 15 15 15
11 28 28 22 20 26 22 28 13 27 40 30 32 35 34 31 33 36 33 31 35 42 44 41 35 31 29 28 23 19 18 18 18 14 14 15 15 15 16 18 19 19 18 16 13 14 13 14 15
12 15 13 14 21 14 19 20 17 33 29 25 31 34 33 31 31 31 31 33 33 40 46 42 33 29 28 26 21 18 19 18 14 14 15 17 16 15 15 17 18 18 17 16 14 14 14 14 15
9 6 14 12 18 14 11 20 14 28 20 22 24 25 28 33 36 35 32 33 33 42 45 36 33 29 28 25 20 19 18 15 14 15 16 17 16 15 14 16 16 16 16 15 14 13 13 14 14
8 12 15 11 8 6 13 18 15 15 13 23 29 29 28 29 31 32 35 29 29 35 37 34 31 29 27 23 19 18 16 14 13 14 15 16 17 16 14 14 14 15 16 16 14 13 12 14 13
18 12 10 13 9 11 16 22 15 25 18 27 29 29 28 31 34 33 29 21 21 25 27 28 31 30 25 20 18 16 14 12 13 14 16 16 16 15 13 13 13 15 15 15 12 12 13 14 13
17 21 21 14 9 7 13 18 15 24 25 25 27 30 31 34 31 29 19 15 15 18 22 26 32 30 24 19 16 14 10 10 12 14 15 15 15 14 13 12 12 14 14 13 12 12 13 13 15
24 22 23 14 12 9 16 22 18 18 23 21 24 28 26 25 21 17 13 13 15 16 22 30 31 25 19 16 13 9 8 9 9 11 11 10 10 12 13 10 10 12 12 12 13 12 16 14 15
28 29 23 20 5 9 9 18 20 23 16 21 27 25 25 21 14 11 10 10 12 18 26 31 26 20 16 13 10 8 7 5 7 8 7 6 8 9 8 8 10 11 10 10 11 14 17 15 16
27 23 23 19 9 13 2 19 16 21 21 18 24 20 20 15 14 9 8 10 14 21 29 26 21 17 14 12 9 6 4 3 5 6 6 7 7 6 5 6 9 9 8 9 10 16 15 15 17
21 14 19 16 7 12 19 13 16 7 17 22 20 19 10 6 6 7 9 11 18 28 28 23 19 15 14 11 7 4 2 3 6 7 7 6 6 5 4 5 5 5 7 7 12 16 14 13 15
15 11 11 9 11 17 19 14 21 14 21 17 14 15 5 4 2 9 13 19 28 29 25 21 17 15 13 10 5 3 2 3 6 8 7 5 3 5 5 5 6 7 7 9 14 14 11 10 10
20 15 7 8 9 13 11 13 19 10 18 17 16 10 4 2 8 15 21 28 33 29 24 20 17 15 13 10 4 2 1 3 6 8 6 2 2 6 8 7 7 8 9 11 12 11 9 8 7
28 23 11 11 9 9 15 10 9 19 27 26 23 10 6 8 14 19 24 27 31 27 23 18 15 14 12 9 3 2 1 3 6 5 5 4 3 8 9 8 7 8 10 11 11 10 9 7 7
24 18 18 14 1 3 5 6 12 16 12 12 18 13 11 14 19 22 26 30 29 25 21 17 14 13 12 9 4 3 1 4 5 3 4 2 4 9 11 10 7 8 10 10 12 11 10 9 8
19 23 12 10 13 8 5 5 10 9 14 10 9 12 13 16 20 24 28 31 28 22 19 16 13 12 11 7 5 3 1 2 5 3 2 3 5 9 12 11 9 10 10 13 12 11 9 10 10
11 22 7 10 6 6 3 5 8 16 15 14 11 14 19 21 24 27 28 30 26 22 20 16 15 13 11 7 5 3 1 1 4 2 2 3 5 8 12 12 10 11 10 11 11 10 9 10 9
22 19 21 11 8 8 2 5 1 9 1 3 9 13 19 21 23 26 27 30 27 24 21 17 16 13 9 6 6 4 1 0 4 4 4 4 6 8 12 12 11 10 10 10 9 8 9 10 9
Wind_Direction
148 143 144 137 211 271 242 222 280 241 229 155 146 189 238 209 186 285 228 173 176 177 181 192 200 206 209 223 223 233 259 293 304 301 293 285 277 276 267 262 259 257 255 258 257 256 258 267 263
155 150 146 121 214 220 211 243 220 229 319 302 239 219 208 258 233 257 225 188 177 179 177 181 189 198 206 213 223 232 259 292 303 302 298 290 279 272 270 280 281 281 273 253 251 261 259 260 266
158 155 173 205 215 226 195 212 262 322 322 270 278 229 193 217 233 231 196 206 186 178 181 184 181 193 199 202 212 225 250 284 300 305 303 296 284 271 277 280 276 280 280 270 270 260 269 266 263
154 150 81 226 235 250 237 209 263 314 349 9 262 271 259 263 263 244 211 202 186 180 186 192 189 195 202 209 215 218 236 258 281 295 305 292 277 266 274 271 267 270 270 265 261 256 262 268 254
158 148 218 240 241 254 244 266 266 283 299 309 227 266 271 290 265 248 227 211 198 188 191 197 201 205 208 218 223 226 238 256 265 286 302 294 274 270 271 273 271 269 265 265 258 249 256 262 262
152 166 214 234 227 251 264 268 250 251 236 298 199 261 270 301 294 259 237 216 203 205 201 204 208 211 215 222 227 230 242 257 264 278 296 289 269 269 270 272 271 268 262 262 259 255 254 254 255
193 196 264 268 263 264 230 207 199 169 346 60 287 257 279 326 332 279 245 215 212 212 210 212 215 215 219 226 232 235 242 257 267 279 292 283 270 268 272 270 271 273 267 261 257 255 249 248 250
189 199 251 243 255 266 182 190 142 332 310 318 184 257 305 320 320 310 251 224 219 219 218 221 222 222 221 223 228 234 242 258 272 279 284 281 271 265 267 269 275 278 272 264 258 254 251 251 249
187 222 242 242 227 253 181 244 152 259 293 284 265 268 290 304 314 299 269 229 223 223 223 226 224 226 228 228 229 232 242 258 271 281 282 278 270 268 267 268 279 275 274 271 264 258 257 253 249
199 227 229 227 235 270 293 297 313 287 295 287 280 282 304 307 307 298 274 246 235 230 230 232 227 228 229 229 229 233 243 257 272 283 278 272 267 266 269 268 277 269 273 269 262 251 248 267 254
206 231 239 245 237 246 283 286 296 292 287 281 291 296 304 303 302 300 292 258 253 241 232 236 231 228 229 229 231 235 246 260 276 277 269 263 262 263 264 264 272 266 274 274 268 258 250 258 251
223 231 241 251 260 263 264 293 280 282 273 280 291 288 292 296 297 299 295 279 257 247 238 237 233 230 229 229 231 238 248 266 273 271 260 256 258 260 259 261 266 257 261 271 263 263 252 248 255
233 238 246 251 262 265 275 267 271 285 281 284 285 286 283 286 287 291 292 288 264 251 240 238 233 230 229 229 232 237 253 268 269 266 259 259 261 266 266 263 256 254 256 270 266 263 258 251 249
232 233 243 252 262 267 269 267 265 266 275 285 284 280 278 279 281 287 284 286 274 256 245 240 233 229 228 230 233 239 257 266 266 267 262 261 266 274 268 261 252 248 248 255 258 258 263 247 240
241 246 237 232 243 252 275 270 248 264 280 282 283 287 281 281 284 287 290 290 283 263 248 239 232 226 228 228 228 243 259 263 267 267 265 268 269 276 272 263 258 247 247 247 255 255 261 246 236
210 216 233 225 229 242 210 268 271 273 284 281 285 288 285 286 287 290 288 294 275 261 252 237 231 225 224 220 227 246 258 261 266 267 268 267 263 273 280 273 261 246 239 240 248 253 258 237 229
214 234 217 238 213 231 206 277 266 269 285 287 290 289 290 288 286 283 294 284 274 263 256 235 227 222 216 210 227 246 254 262 268 267 271 270 261 273 281 275 254 237 234 239 246 250 248 229 222
216 225 228 234 225 233 247 255 270 285 296 282 290 288 287 284 284 291 292 282 274 258 246 230 221 211 201 209 227 242 249 264 267 275 275 269 263 272 278 275 246 233 232 237 243 249 244 216 205
257 238 238 228 226 254 260 276 280 288 292 282 285 283 281 283 293 295 288 274 265 245 227 211 205 193 196 213 226 233 248 265 277 280 275 268 262 270 274 271 240 228 232 234 240 241 219 205 193
235 240 238 241 248 240 274 282 288 280 273 278 288 286 279 285 295 289 281 262 235 225 207 198 187 187 198 212 217 225 245 267 283 287 284 271 266 269 277 259 229 221 227 233 238 231 201 196 188
225 231 235 243 214 242 281 281 279 277 274 295 288 276 280 278 288 282 276 244 218 204 192 179 178 186 197 203 205 220 249 278 300 306 296 271 273 286 276 246 221 214 222 233 234 213 197 188 183
234 228 242 240 234 251 232 281 275 287 286 284 283 283 279 289 259 268 247 215 198 184 174 174 177 186 191 192 194 218 236 285 319 326 303 276 283 285 269 225 200 207 229 229 219 192 190 192 188
229 215 222 227 241 275 258 268 280 264 280 277 275 270 278 256 257 240 203 183 173 172 169 173 179 180 185 180 193 203 224 314 334 338 317 294 278 258 226 186 196 208 205 204 185 183 187 191 194
201 196 176 197 234 243 245 247 270 254 255 264 266 260 271 322 246 175 165 161 162 167 171 176 176 182 180 183 183 202 270 318 334 338 329 325 274 198 180 168 161 167 166 163 168 179 189 198 203
191 191 186 208 211 246 229 220 249 254 249 246 264 263 234 219 169 163 162 159 164 169 175 174 178 181 180 179 176 191 274 337 336 342 351 328 192 173 156 144 151 156 157 161 161 164 172 188 194
190 181 198 211 224 228 214 226 251 228 240 237 241 260 218 186 169 166 164 165 167 173 174 175 178 178 180 176 173 160 91 350 357 351 17 51 139 164 152 149 146 158 167 163 170 168 173 177 167
199 207 217 230 37 233 204 236 273 246 249 225 231 222 202 180 170 166 168 169 173 175 175 174 171 172 175 169 163 136 108 8 3 6 30 94 109 156 154 158 144 157 160 168 165 165 170 174 170
190 182 187 210 218 227 228 233 238 229 237 220 213 201 177 172 166 167 171 174 177 175 172 167 165 166 169 164 162 141 124 7 12 27 69 96 129 160 166 164 150 152 150 159 161 162 165 169 174
179 189 197 204 226 209 234 227 220 229 217 214 213 183 170 170 171 169 174 178 177 176 171 167 166 166 167 163 178 156 172 1 10 46 87 107 144 162 171 170 160 156 159 157 162 165 173 182 185
199 192 192 199 184 216 241 250 339 247 246 192 148 155 165 168 165 171 175 178 179 177 174 173 172 170 166 173 186 165 183 19 16 117 113 109 138 155 171 169 167 165 164 162 168 174 180 183 180
Height
1533 1534 1535 1535 1541 1539 1535 1527 1524 1521 1520 1521 1520 1520 1518 1515 1516 1519 1509 1510 1512 1514 1516 1519 1521 1523 1525 1526 1526 1527 1527 1527 1527 1527 1526 1526 1526 1526 1526 1526 1526 1527 1527 1527 1528 1529 1527 1527 1528
1532 1533 1535 1535 1540 1542 1530 1523 1520 1518 1519 1517 1517 1516 1516 1513 1511 1509 1508 1509 1512 1513 1514 1515 1517 1519 1521 1523 1524 1525 1525 1526 1525 1525 1524 1523 1523 1523 1523 1523 1522 1523 1523 1524 1524 1526 1526 1526 1525
1533 1533 1535 1533 1536 1531 1523 1518 1515 1516 1516 1515 1514 1514 1513 1510 1508 1507 1506 1507 1509 1510 1512 1513 1515 1518 1519 1520 1521 1522 1523 1523 1522 1522 1521 1520 1520 1520 1520 1521 1521 1520 1520 1520 1520 1523 1524 1525 1524
1531 1534 1535 1532 1530 1525 1519 1514 1516 1515 1513 1512 1512 1512 1510 1506 1505 1505 1506 1505 1507 1508 1510 1512 1513 1514 1516 1518 1519 1519 1520 1520 1520 1520 1519 1518 1518 1517 1518 1517 1518 1518 1517 1518 1518 1521 1521 1523 1522
1530 1531 1531 1532 1527 1521 1516 1513 1515 1513 1514 1511 1511 1509 1508 1504 1504 1504 1504 1504 1505 1506 1508 1509 1511 1512 1513 1515 1516 1517 1518 1518 1518 1518 1517 1516 1515 1516 1515 1515 1515 1515 1515 1515 1516 1517 1518 1519 1520
1529 1532 1532 1528 1522 1514 1512 1510 1512 1511 1512 1510 1510 1509 1505 1503 1503 1503 1503 1503 1504 1505 1505 1506 1508 1509 1511 1512 1513 1515 1516 1516 1516 1516 1515 1514 1514 1513 1513 1512 1512 1511 1511 1512 1512 1513 1514 1517 1517
1525 1527 1523 1522 1517 1514 1509 1507 1507 1507 1509 1508 1508 1505 1503 1503 1503 1502 1501 1501 1502 1502 1502 1503 1505 1505 1507 1510 1511 1512 1514 1514 1514 1514 1513 1512 1512 1511 1510 1509 1509 1508 1507 1506 1507 1509 1511 1513 1514
1525 1523 1523 1519 1513 1506 1503 1506 1506 1507 1506 1506 1506 1503 1502 1502 1500 1500 1499 1498 1498 1497 1500 1500 1501 1502 1504 1505 1507 1508 1510 1510 1510 1510 1510 1510 1509 1509 1508 1507 1506 1504 1503 1503 1503 1504 1507 1508 1510
1523 1522 1519 1513 1513 1499 1503 1502 1505 1506 1506 1505 1503 1502 1501 1501 1499 1497 1497 1495 1493 1492 1494 1496 1497 1499 1501 1503 1504 1505 1506 1507 1507 1507 1506 1507 1506 1506 1505 1504 1503 1501 1500 1499 1499 1500 1501 1503 1505
1518 1515 1508 1501 1501 1502 1506 1506 1508 1507 1503 1495 1497 1496 1497 1496 1495 1493 1491 1489 1487 1486 1488 1490 1492 1494 1496 1499 1502 1502 1503 1504 1504 1503 1503 1503 1502 1502 1502 1501 1500 1499 1497 1496 1496 1496 1497 1498 1500
1506 1505 1500 1497 1496 1501 1501 1501 1505 1503 1497 1489 1491 1489 1489 1492 1488 1488 1485 1483 1481 1482 1484 1483 1487 1490 1493 1495 1498 1499 1500 1500 1500 1500 1500 1499 1499 1498 1498 1497 1496 1495 1494 1493 1493 1493 1494 1494 1496
1496 1498 1498 1493 1498 1501 1498 1497 1496 1500 1490 1486 1487 1487 1486 1483 1482 1481 1479 1476 1476 1477 1478 1479 1482 1485 1489 1491 1493 1495 1496 1497 1497 1496 1496 1495 1495 1494 1494 1493 1492 1492 1491 1490 1490 1490 1490 1491 1492
1491 1492 1494 1495 1495 1498 1497 1493 1494 1490 1479 1481 1482 1479 1477 1476 1475 1474 1473 1470 1470 1470 1473 1473 1477 1480 1485 1488 1490 1492 1493 1493 1493 1493 1492 1492 1491 1490 1490 1488 1488 1488 1488 1487 1486 1486 1487 1488 1489
1484 1489 1489 1492 1492 1492 1491 1485 1493 1481 1474 1478 1476 1472 1469 1467 1467 1467 1465 1463 1463 1463 1465 1469 1472 1476 1480 1484 1487 1489 1489 1490 1489 1489 1488 1488 1487 1486 1485 1484 1484 1484 1484 1484 1484 1484 1484 1485 1485
1484 1487 1485 1488 1488 1488 1486 1480 1480 1473 1473 1472 1468 1464 1462 1459 1460 1459 1459 1457 1456 1456 1458 1464 1469 1472 1476 1480 1484 1485 1486 1486 1485 1485 1484 1483 1483 1482 1481 1480 1479 1479 1480 1481 1481 1481 1481 1481 1482
1482 1484 1482 1475 1480 1481 1484 1470 1471 1467 1468 1466 1462 1459 1456 1452 1452 1452 1451 1449 1448 1448 1451 1460 1464 1467 1470 1475 1479 1482 1482 1481 1482 1481 1480 1480 1479 1478 1477 1476 1475 1476 1477 1478 1479 1478 1478 1478 1479
1479 1472 1477 1474 1474 1475 1476 1464 1463 1465 1464 1461 1455 1453 1449 1446 1444 1443 1443 1440 1440 1441 1445 1453 1460 1465 1466 1470 1474 1477 1478 1478 1477 1477 1476 1475 1475 1474 1473 1472 1471 1472 1473 1475 1475 1475 1475 1475 1477
1461 1471 1468 1473 1468 1469 1466 1461 1462 1457 1458 1456 1449 1446 1443 1440 1435 1436 1434 1433 1432 1434 1439 1446 1452 1459 1463 1468 1470 1472 1474 1474 1474 1473 1472 1471 1470 1470 1469 1468 1467 1469 1470 1471 1472 1472 1472 1473 1476
1457 1459 1459 1460 1463 1465 1459 1458 1455 1452 1454 1451 1444 1439 1436 1431 1430 1427 1427 1427 1427 1430 1435 1441 1446 1455 1460 1464 1467 1469 1471 1471 1470 1469 1467 1466 1466 1466 1464 1464 1464 1466 1467 1468 1469 1469 1470 1472 1474
1459 1458 1456 1456 1458 1463 1456 1452 1452 1449 1447 1443 1437 1433 1428 1426 1425 1422 1422 1423 1425 1429 1434 1440 1447 1453 1458 1462 1464 1466 1468 1468 1467 1465 1463 1462 1462 1461 1460 1460 1461 1463 1464 1465 1466 1466 1468 1470 1473
1451 1450 1454 1455 1456 1457 1456 1449 1448 1439 1441 1433 1429 1427 1423 1421 1420 1419 1419 1422 1426 1429 1434 1441 1448 1453 1456 1459 1461 1465 1466 1465 1464 1462 1460 1460 1459 1458 1457 1457 1458 1460 1462 1462 1463 1464 1467 1469 1471
1446 1449 1453 1458 1464 1461 1455 1452 1444 1435 1431 1424 1420 1420 1418 1417 1416 1415 1417 1420 1425 1430 1438 1444 1448 1451 1454 1457 1460 1463 1463 1463 1461 1460 1458 1457 1456 1455 1455 1455 1456 1458 1459 1460 1461 1463 1466 1469 1471
1433 1445 1450 1456 1463 1465 1458 1461 1439 1435 1426 1416 1412 1414 1415 1413 1412 1413 1416 1420 1426 1433 1439 1444 1447 1450 1453 1457 1459 1461 1461 1460 1459 1457 1456 1454 1454 1454 1454 1455 1456 1457 1458 1459 1460 1463 1465 1468 1471
1435 1442 1447 1450 1453 1459 1448 1455 1428 1424 1415 1407 1403 1406 1407 1408 1408 1413 1416 1420 1427 1435 1440 1443 1447 1449 1453 1456 1458 1459 1459 1458 1457 1456 1454 1453 1452 1452 1453 1454 1455 1457 1458 1459 1460 1463 1466 1467 1470
1430 1440 1455 1461 1457 1443 1436 1445 1418 1408 1405 1404 1401 1403 1405 1406 1409 1412 1417 1421 1428 1435 1439 1443 1446 1449 1453 1455 1456 1457 1457 1457 1456 1454 1452 1451 1451 1451 1453 1455 1456 1457 1459 1460 1462 1464 1466 1468 1469
1416 1420 1429 1448 1445 1434 1429 1434 1411 1399 1391 1395 1397 1400 1402 1405 1408 1413 1419 1425 1430 1435 1439 1442 1446 1449 1452 1454 1455 1456 1456 1456 1455 1453 1452 1451 1450 1451 1453 1455 1456 1457 1459 1461 1463 1465 1467 1468 1470
1410 1417 1413 1422 1432 1428 1412 1417 1401 1391 1388 1389 1390 1395 1399 1404 1406 1413 1419 1425 1430 1434 1439 1442 1446 1448 1451 1453 1454 1455 1455 1455 1454 1453 1452 1451 1451 1452 1453 1455 1457 1458 1460 1461 1463 1465 1467 1469 1472
1392 1404 1425 1418 1428 1434 1415 1415 1399 1386 1384 1383 1386 1391 1396 1402 1407 1413 1419 1425 1431 1435 1439 1442 1446 1448 1450 1452 1454 1455 1455 1454 1454 1452 1451 1451 1451 1452 1454 1456 1458 1459 1461 1462 1464 1466 1468 1470 1472
1393 1399 1402 1403 1408 1414 1417 1401 1380 1376 1378 1379 1381 1386 1392 1399 1406 1411 1419 1425 1431 1435 1438 1442 1445 1448 1450 1452 1454 1455 1454 1454 1453 1452 1451 1452 1452 1453 1455 1457 1459 1460 1462 1463 1465 1467 1468 1470 1472
1380 1385 1390 1396 1415 1403 1406 1397 1377 1377 1380 1382 1382 1386 1392 1399 1404 1412 1418 1424 1429 1433 1438 1441 1445 1447 1450 1452 1453 1454 1454 1454 1453 1452 1452 1452 1452 1454 1455 1457 1459 1461 1463 1464 1466 1467 1468 1470 1472